SWR976 LSZH-EDDB

Flight info

Callsign SWR976
Flight time N/A
Altitude 36000
Route DEGES Z1 ETAGO DCT TIKNI/N0448F370 T279 TAMEB T278 KLF KLF1L
Aircraft A21N/M-SDE2E3FGHIRWXY/LB1

Departure

Time 2026-02-18 10:38
Airport Zürich Airport (LSZH)

Arrival

Time N/A
Airport Berlin Brandenburg Airport (EDDB)
Time Latitude Longitude Altitude Speed Heading
2026-02-18 10:11 47.45345 8.55754 1418 ft 0 kts
2026-02-18 10:24 47.45335 8.55753 1413 ft 3 kts
2026-02-18 10:24 47.45315 8.55750 1411 ft 3 kts
2026-02-18 10:25 47.45297 8.55747 1416 ft 2 kts
2026-02-18 10:25 47.45266 8.55759 1411 ft 3 kts 294°
2026-02-18 10:25 47.45261 8.55785 1410 ft 2 kts 277°
2026-02-18 10:26 47.45260 8.55791 1410 ft 1 kts 277°
2026-02-18 10:28 47.45261 8.55784 1410 ft 2 kts 275°
2026-02-18 10:28 47.45262 8.55751 1411 ft 3 kts 275°
2026-02-18 10:28 47.45264 8.55726 1413 ft 2 kts 275°
2026-02-18 10:29 47.45267 8.55681 1410 ft 7 kts 275°
2026-02-18 10:29 47.45302 8.55561 1415 ft 6 kts 330°
2026-02-18 10:29 47.45356 8.55524 1417 ft 11 kts 334°
2026-02-18 10:30 47.45421 8.55477 1415 ft 11 kts 334°
2026-02-18 10:30 47.45487 8.55433 1406 ft 10 kts 347°
2026-02-18 10:30 47.45529 8.55466 1411 ft 5 kts 73°
2026-02-18 10:30 47.45527 8.55502 1415 ft 4 kts 99°
2026-02-18 10:31 47.45521 8.55562 1411 ft 8 kts 97°
2026-02-18 10:31 47.45515 8.55655 1417 ft 11 kts 95°
2026-02-18 10:31 47.45508 8.55762 1415 ft 9 kts 95°
2026-02-18 10:31 47.45525 8.55830 1418 ft 6 kts 39°
2026-02-18 10:32 47.45576 8.55846 1411 ft 8 kts
2026-02-18 10:32 47.45626 8.55869 1416 ft 9 kts 44°
2026-02-18 10:32 47.45634 8.55963 1417 ft 11 kts 98°
2026-02-18 10:32 47.45624 8.56068 1414 ft 9 kts 98°
2026-02-18 10:33 47.45617 8.56170 1420 ft 12 kts 95°
2026-02-18 10:33 47.45601 8.56372 1422 ft 7 kts 97°
2026-02-18 10:33 47.45595 8.56460 1417 ft 11 kts 95°
2026-02-18 10:34 47.45586 8.56585 1420 ft 11 kts 96°
2026-02-18 10:34 47.45580 8.56680 1425 ft 8 kts 96°
2026-02-18 10:34 47.45574 8.56772 1423 ft 12 kts 96°
2026-02-18 10:34 47.45564 8.56902 1423 ft 12 kts 96°
2026-02-18 10:35 47.45577 8.57008 1425 ft 9 kts 47°
2026-02-18 10:35 47.45609 8.57027 1427 ft 4 kts
2026-02-18 10:35 47.45649 8.57025 1428 ft 6 kts 347°
2026-02-18 10:35 47.45665 8.56987 1427 ft 5 kts 274°
2026-02-18 10:36 47.45666 8.56976 1427 ft 5 kts 275°
2026-02-18 10:36 47.45667 8.56952 1427 ft 5 kts 275°
2026-02-18 10:37 47.45668 8.56933 1427 ft 0 kts 275°
2026-02-18 10:37 47.45699 8.56451 1419 ft 76 kts 276°
2026-02-18 10:37 47.45779 8.55324 1410 ft 145 kts 276°
2026-02-18 10:38 47.45887 8.53726 1815 ft 159 kts 276°
2026-02-18 10:38 47.45980 8.52059 2568 ft 163 kts 273°
2026-02-18 10:38 47.46049 8.50399 3285 ft 156 kts 272°
2026-02-18 10:38 47.46097 8.48698 3325 ft 177 kts 264°
2026-02-18 10:39 47.45595 8.47043 3508 ft 188 kts 215°
2026-02-18 10:39 47.44317 8.46696 3748 ft 198 kts 167°
2026-02-18 10:39 47.42950 8.46579 3989 ft 209 kts 210°
2026-02-18 10:39 47.41964 8.44943 4236 ft 224 kts 242°
2026-02-18 10:40 47.41618 8.42647 4612 ft 233 kts 273°
2026-02-18 10:40 47.42215 8.40630 5836 ft 208 kts 306°
2026-02-18 10:40 47.43404 8.39308 6395 ft 224 kts 333°
2026-02-18 10:40 47.45002 8.39148 6852 ft 241 kts
2026-02-18 10:41 47.46664 8.39499 7366 ft 239 kts 349°
2026-02-18 10:41 47.48788 8.36660 8444 ft 212 kts 271°
2026-02-18 10:41 47.48383 8.34626 8978 ft 213 kts 233°
2026-02-18 10:42 47.47262 8.33162 9573 ft 218 kts 223°
2026-02-18 10:42 47.46088 8.31718 10111 ft 221 kts 226°
2026-02-18 10:42 47.44915 8.30254 10653 ft 224 kts 223°
2026-02-18 10:42 47.43556 8.29038 11230 ft 232 kts 210°
2026-02-18 10:43 47.41951 8.28466 11715 ft 246 kts 189°
2026-02-18 10:43 47.40220 8.28930 12193 ft 264 kts 162°
2026-02-18 10:43 47.38727 8.30626 12652 ft 282 kts 131°
2026-02-18 10:43 47.37971 8.33318 13079 ft 292 kts 95°
2026-02-18 10:44 47.38261 8.36228 13517 ft 288 kts 62°
2026-02-18 10:44 47.39203 8.38832 14021 ft 286 kts 53°
2026-02-18 10:44 47.40253 8.41330 14473 ft 289 kts 52°
2026-02-18 10:44 47.41342 8.43893 14723 ft 303 kts 52°
2026-02-18 10:45 47.42467 8.46586 15105 ft 312 kts 52°
2026-02-18 10:45 47.44729 8.52117 16230 ft 316 kts 52°
2026-02-18 10:45 47.45801 8.54935 16780 ft 324 kts 62°
2026-02-18 10:46 47.46220 8.58281 17092 ft 345 kts 89°
2026-02-18 10:46 47.46143 8.61956 17386 ft 358 kts 85°
2026-02-18 10:46 47.46203 8.65631 17661 ft 371 kts 85°
2026-02-18 10:46 47.46306 8.69513 17938 ft 384 kts 84°
2026-02-18 10:47 47.46435 8.73514 18216 ft 396 kts 84°
2026-02-18 10:47 47.46576 8.77651 18461 ft 409 kts 84°
2026-02-18 10:47 47.46614 8.81923 18714 ft 423 kts 92°
2026-02-18 10:47 47.46180 8.86268 18942 ft 436 kts 100°
2026-02-18 10:48 47.45547 8.90721 19136 ft 447 kts 101°
2026-02-18 10:48 47.44883 8.95253 19349 ft 457 kts 101°
2026-02-18 10:48 47.44206 8.99894 19562 ft 466 kts 101°
2026-02-18 10:48 47.43519 9.04622 19776 ft 475 kts 101°
2026-02-18 10:49 47.42822 9.09411 20080 ft 480 kts 101°
2026-02-18 10:49 47.42104 9.19220 20811 ft 482 kts 79°
2026-02-18 10:49 47.42534 9.22437 21057 ft 477 kts 68°
2026-02-18 10:50 47.43760 9.26911 21464 ft 473 kts 59°
2026-02-18 10:50 47.45272 9.31248 21891 ft 473 kts 55°
2026-02-18 10:50 47.47053 9.35295 22261 ft 468 kts 44°
2026-02-18 10:50 47.49283 9.38724 22671 ft 459 kts 32°
2026-02-18 10:51 47.51890 9.41353 23063 ft 448 kts 19°
2026-02-18 10:51 47.54710 9.43221 23462 ft 444 kts 13°
2026-02-18 10:51 47.57625 9.44612 23808 ft 436 kts
2026-02-18 10:51 47.60592 9.45256 24177 ft 430 kts 357°
2026-02-18 10:52 47.63568 9.45562 24576 ft 428 kts 355°
2026-02-18 10:52 47.66516 9.45736 24938 ft 428 kts 354°
2026-02-18 10:52 47.69507 9.45855 25289 ft 428 kts 353°
2026-02-18 10:52 47.72495 9.45963 25769 ft 426 kts 353°
2026-02-18 10:53 47.75443 9.46081 26298 ft 422 kts 353°